sat.trackr.live / text

‹ back to catalog

ASIASAT 9

NORAD 42942 · 2017-057A

PAYLOAD ACTIVE UNKNOWN

§ Identity

Operator
Country
AC
Launch date
2017-09-28
Launch site
TYMSC
Launch vehicle
Mass (kg)
RCS (m²)

Purposes: comms

External: N2YO · Heavens-Above · Gunter

§ Orbital elements

Epoch: 2026-09-19T21:07:38.670816Z

Period
1,436.10 min
Inclination
0.0019°
Eccentricity
0.0001952
Mean motion
1.00271368 rev/d
Perigee alt
35,778.5 km
Apogee alt
35,794.9 km
Semi-major
42,164.8 km
B*
0.0000e+0
RAAN
174.2118°
Arg perigee
10.8445°
Mean anomaly
252.7511°
Rev number
3,282

§ Raw data

ASIASAT 91 42942U 17057A   26262.88030869 -.00000364  00000+0  00000+0 0  99932 42942   0.0019 174.2118 0001952  10.8445 252.7511  1.00271368 32822

JSON: /api/v1/satellites/42942 · /tle

For live sub-satellite position, see the globe view (requires WebGL).

§ Visibility from observer

Set your observer location to see the next 7 days of passes ≥ 10°. The values pass through the URL so the page stays shareable.

No JS? Fill the form by hand. The geolocation button needs JavaScript.